Location: Chatou
(48.8898°N, 2.1586°E)
Time: 05:42:01
(UTC+00:00)

Cosmos 1844 Rocket - Pass Details

Date: 03 February 2023
Orbit: 826 x 843 km, 71.0° (Epoch: 21 March)

Event Time Altitude Azimuth Distance (km) Brightness Sun altitude
Rises 17:39:30 0° 333° (NNW) 3,378 6.0 -8.2°
Reaches altitude 10° 17:42:01 10° 339° (NNW) 2,439 5.2 -8.6°
Maximum altitude 17:47:29 53° 56° (NE) 1,010 2.8 -9.5°
Drops below altitude 10° 17:52:55 10° 133° (SE) 2,425 4.8 -10.3°
Sets 17:55:24 0° 138° (SE) 3,355 5.5 -10.7°
